TimeCST,TemperatureF,Dew PointF,Humidity,Sea Level PressureIn,VisibilityMPH,Wind Direction,Wind SpeedMPH,Gust SpeedMPH,PrecipitationIn,Events,Conditions,WindDirDegrees,DateUTC
12:13 AM,-23.8,-29.2,76,30.61,10.0,Calm,Calm,-,N/A,,Clear,0,2013-01-24 06:13:00
12:33 AM,-23.8,-31.0,69,30.60,10.0,Calm,Calm,-,N/A,,Clear,0,2013-01-24 06:33:00
12:54 AM,-25.6,-31.0,76,30.60,10.0,Calm,Calm,-,N/A,,Clear,0,2013-01-24 06:54:00
1:13 AM,-25.6,-32.8,69,30.61,10.0,Calm,Calm,-,N/A,,Clear,0,2013-01-24 07:13:00
1:33 AM,-25.6,-32.8,69,30.61,10.0,Calm,Calm,-,N/A,,Clear,0,2013-01-24 07:33:00
1:54 AM,-25.6,-32.8,69,30.60,10.0,Calm,Calm,-,N/A,,Clear,0,2013-01-24 07:54:00
2:13 AM,-25.6,-32.8,69,30.60,10.0,Calm,Calm,-,N/A,,Clear,0,2013-01-24 08:13:00
2:33 AM,-27.4,-32.8,75,30.60,10.0,Calm,Calm,-,N/A,,Clear,0,2013-01-24 08:33:00
2:54 AM,-27.4,-34.6,69,30.59,10.0,Calm,Calm,-,N/A,,Clear,0,2013-01-24 08:54:00
3:13 AM,-27.4,-34.6,69,30.59,10.0,Calm,Calm,-,N/A,,Clear,0,2013-01-24 09:13:00
3:33 AM,-27.4,-34.6,69,30.60,10.0,Calm,Calm,-,N/A,,Clear,0,2013-01-24 09:33:00
3:54 AM,-29.2,-34.6,75,30.59,10.0,Calm,Calm,-,N/A,,Clear,0,2013-01-24 09:54:00
4:13 AM,-29.2,-34.6,75,30.59,10.0,Calm,Calm,-,N/A,,Clear,0,2013-01-24 10:13:00
4:33 AM,-29.2,-34.6,75,30.59,10.0,Calm,Calm,-,N/A,,Clear,0,2013-01-24 10:33:00
4:54 AM,-31.0,-36.4,75,30.59,10.0,Calm,Calm,-,N/A,,Clear,0,2013-01-24 10:54:00
5:13 AM,-31.0,-38.2,68,30.57,10.0,Calm,Calm,-,N/A,,Clear,0,2013-01-24 11:13:00
5:33 AM,-31.0,-38.2,68,30.58,10.0,Calm,Calm,-,N/A,,Clear,0,2013-01-24 11:33:00
5:54 AM,-29.2,-36.4,68,30.58,10.0,Calm,Calm,-,N/A,,Clear,0,2013-01-24 11:54:00
6:13 AM,-29.2,-36.4,68,30.58,10.0,Calm,Calm,-,N/A,,Clear,0,2013-01-24 12:13:00
6:33 AM,-29.2,-36.4,68,30.58,10.0,Calm,Calm,-,N/A,,Clear,0,2013-01-24 12:33:00
6:54 AM,-29.2,-36.4,68,30.56,10.0,ESE,3.5,-,N/A,,Clear,110,2013-01-24 12:54:00
7:13 AM,-27.4,-32.8,75,30.56,10.0,Calm,Calm,-,N/A,,Clear,0,2013-01-24 13:13:00
7:33 AM,-25.6,-32.8,69,30.56,10.0,SSE,4.6,-,N/A,,Clear,150,2013-01-24 13:33:00
7:54 AM,-25.6,-31.0,76,30.55,10.0,Calm,Calm,-,N/A,,Clear,0,2013-01-24 13:54:00
8:13 AM,-23.8,-29.2,76,30.54,10.0,SE,4.6,-,N/A,,Clear,140,2013-01-24 14:13:00
8:33 AM,-23.8,-31.0,69,30.54,10.0,SSE,5.8,-,N/A,,Clear,150,2013-01-24 14:33:00
8:54 AM,-23.8,-31.0,69,30.54,10.0,SE,5.8,-,N/A,,Clear,140,2013-01-24 14:54:00
9:13 AM,-23.8,-29.2,76,30.54,10.0,SE,3.5,-,N/A,,Clear,130,2013-01-24 15:13:00
9:33 AM,-22.0,-27.4,76,30.51,10.0,SE,5.8,-,N/A,,Clear,140,2013-01-24 15:33:00
9:54 AM,-20.2,-25.6,76,30.51,10.0,SSE,8.1,-,N/A,,Clear,150,2013-01-24 15:54:00
10:13 AM,-18.4,-23.8,76,30.50,10.0,SSE,10.4,-,N/A,,Clear,160,2013-01-24 16:13:00
10:34 AM,-16.6,-23.8,70,30.49,10.0,SSE,13.8,-,N/A,,Clear,160,2013-01-24 16:34:00
10:54 AM,-16.6,-22.0,76,30.48,10.0,SSE,15.0,-,N/A,,Clear,150,2013-01-24 16:54:00
11:13 AM,-16.6,-22.0,76,30.48,10.0,SSE,13.8,-,N/A,,Clear,150,2013-01-24 17:13:00
11:33 AM,-14.8,-20.2,77,30.46,10.0,SSE,12.7,-,N/A,,Clear,150,2013-01-24 17:33:00
11:54 AM,-13.0,-20.2,70,30.45,10.0,SSE,10.4,-,N/A,,Scattered Clouds,150,2013-01-24 17:54:00
12:13 PM,-11.2,-20.2,64,30.43,10.0,SE,6.9,-,N/A,,Scattered Clouds,130,2013-01-24 18:13:00
12:33 PM,-11.2,-18.4,70,30.43,10.0,SE,5.8,-,N/A,,Scattered Clouds,140,2013-01-24 18:33:00
12:54 PM,-11.2,-18.4,70,30.42,10.0,SE,5.8,-,N/A,,Clear,140,2013-01-24 18:54:00
1:13 PM,-11.2,-18.4,70,30.40,10.0,SSE,6.9,-,N/A,,Scattered Clouds,150,2013-01-24 19:13:00
1:33 PM,-9.4,-18.4,65,30.39,10.0,SE,6.9,-,N/A,,Scattered Clouds,140,2013-01-24 19:33:00
1:54 PM,-9.4,-18.4,65,30.36,10.0,SE,5.8,-,N/A,,Scattered Clouds,140,2013-01-24 19:54:00
2:13 PM,-9.4,-18.4,65,30.34,10.0,SE,6.9,-,N/A,,Scattered Clouds,140,2013-01-24 20:13:00
2:33 PM,-9.4,-18.4,65,30.31,10.0,SE,8.1,-,N/A,,Mostly Cloudy,130,2013-01-24 20:33:00
2:54 PM,-7.6,-18.4,59,30.30,10.0,SE,6.9,-,N/A,,Overcast,130,2013-01-24 20:54:00
3:13 PM,-7.6,-16.6,65,30.28,1.2,SE,10.4,-,N/A,Snow,Light Snow,140,2013-01-24 21:13:00
3:33 PM,-7.6,-14.8,71,30.28,1.2,SE,6.9,-,N/A,Snow,Light Snow,130,2013-01-24 21:33:00
3:53 PM,-7.6,-14.8,71,30.26,1.0,SE,9.2,-,N/A,Snow,Light Snow,140,2013-01-24 21:53:00
4:13 PM,-7.6,-14.8,71,30.25,4.0,SE,9.2,-,N/A,Snow,Light Snow,140,2013-01-24 22:13:00
4:34 PM,-7.6,-14.8,71,30.24,2.0,SE,11.5,17.3,N/A,Snow,Light Snow,140,2013-01-24 22:34:00
4:53 PM,-7.6,-13.0,77,30.22,7.0,SE,15.0,-,N/A,,Overcast,140,2013-01-24 22:53:00
5:14 PM,-7.6,-13.0,77,30.21,10.0,SSE,16.1,-,N/A,,Overcast,150,2013-01-24 23:14:00
5:33 PM,-7.6,-13.0,77,30.19,10.0,SE,16.1,19.6,N/A,,Overcast,140,2013-01-24 23:33:00
5:53 PM,-7.6,-13.0,77,30.18,10.0,SE,10.4,16.1,N/A,,Overcast,130,2013-01-24 23:53:00
6:14 PM,-7.6,-11.2,84,30.17,1.2,SE,11.5,-,N/A,Snow,Light Snow,140,2013-01-25 00:14:00
6:33 PM,-5.8,-11.2,77,30.16,1.2,SE,9.2,-,N/A,Snow,Light Snow,140,2013-01-25 00:33:00
6:54 PM,-5.8,-11.2,77,30.15,1.0,SE,10.4,-,N/A,Snow,Snow,140,2013-01-25 00:54:00
7:13 PM,-5.8,-9.4,84,30.13,1.0,SE,10.4,16.1,N/A,Snow,Light Snow,140,2013-01-25 01:13:00
7:33 PM,-5.8,-9.4,84,30.11,1.0,SE,10.4,16.1,N/A,Snow,Light Snow,140,2013-01-25 01:33:00
7:54 PM,-5.8,-9.4,84,30.10,1.8,SE,11.5,17.3,N/A,Snow,Light Snow,140,2013-01-25 01:54:00
8:13 PM,-5.8,-9.4,84,30.08,1.8,SE,10.4,16.1,N/A,Snow,Light Snow,140,2013-01-25 02:13:00
8:33 PM,-4.0,-9.4,78,30.08,3.0,SSE,13.8,-,N/A,Snow,Light Snow,150,2013-01-25 02:33:00
8:53 PM,-4.0,-9.4,78,30.08,1.5,SSE,13.8,-,N/A,Snow,Light Snow,150,2013-01-25 02:53:00
9:13 PM,-2.2,-7.6,78,30.06,1.8,SSE,18.4,-,N/A,Snow,Light Snow,160,2013-01-25 03:13:00
9:34 PM,-2.2,-7.6,78,30.05,4.0,SSE,17.3,-,N/A,Snow,Light Snow,160,2013-01-25 03:34:00
9:53 PM,-2.2,-7.6,78,30.04,10.0,SSE,15.0,-,N/A,,Overcast,150,2013-01-25 03:53:00
10:14 PM,-2.2,-7.6,78,30.02,10.0,SSE,17.3,-,N/A,Snow,Light Snow,160,2013-01-25 04:14:00
10:34 PM,-2.2,-5.8,85,30.02,1.8,SSE,15.0,-,N/A,Snow,Light Snow,160,2013-01-25 04:34:00
10:53 PM,-2.2,-5.8,85,30.00,1.8,SSE,15.0,-,N/A,Snow,Light Snow,150,2013-01-25 04:53:00
11:13 PM,-0.4,-5.8,78,30.00,1.8,SSE,12.7,-,N/A,Snow,Light Snow,150,2013-01-25 05:13:00
11:34 PM,-0.4,-5.8,78,29.98,1.2,SSE,13.8,-,N/A,Snow,Light Snow,150,2013-01-25 05:34:00
11:53 PM,-0.4,-5.8,78,29.97,1.8,SE,10.4,-,N/A,Snow,Light Snow,140,2013-01-25 05:53:00